Tracking 17141 objects as of 6-July-2015
HD Live streaming from Space Station

COSMOS 2251 DEB

Track COSMOS 2251 DEB now!
10-day predictions
COSMOS 2251 DEB is classified as:


NORAD ID: 34473
Int'l Code: 1993-036TS
Perigee: 740.8 km
Apogee: 772.9 km
Inclination: 74.0 °
Period: 99.8 minutes
Semi major axis: 7127 km
RCS: 0.0156 m2 (small)
Launch date: June 16, 1993
Source: Commonwealth of Independent States (former USSR) (CIS)

Note: This is SATELLITE DEBRIS
Your satellite tracking list
Your tracking list is empty





NASA's NSSDC Master Catalog

Two Line Element Set (TLE):
1 34473U 93036TS  15187.40196644  .00002836  00000-0  85778-3 0  9995
2 34473 074.0360 062.7260 0022554 323.3760 089.7158 14.42663843334412

Source of the keplerian elements: AFSPC

N2YO: 443